Weather History for Eelde, Netherlands

Change the Weather History Date:

Thursday, July 18, 2013

  Actual Average Record
Temperature  
Mean Temperature 64 °F -  
Max Temperature 76 °F 70 °F 87 °F (2014)
Min Temperature 53 °F 51 °F 48 °F (2000)
Growing Degree Days 14 (Base 50)    
Moisture  
Dew Point 59 °F    
Average Humidity 77    
Maximum Humidity 100    
Minimum Humidity 51    
Precipitation  
Precipitation 0.00 in 0.09 in - ()
Sea Level Pressure  
Sea Level Pressure 30.29 in    
Wind  
Wind Speed 5 mph ()    
Max Wind Speed 13 mph    
Max Gust Speed -    
Visibility 5.7 miles    
Events Fog    
Averages and records for this station are not official NWS values.
T = Trace of Precipitation, MM = Missing Value Source: Averaged Metar Reports

Daily Weather History Graph

Daily Weather History Graph

Search for Another Location

Airport:

Trip Planner

Search our weather history database for the weather conditions in past years. The results will help you decide how hot, cold, wet, or windy it might be!

Date:

Astronomy

Jul. 18, 2013 Rise Set
Actual Time 5:29 AM CEST 9:49 PM CEST
Civil Twilight 4:42 AM CEST 10:35 PM CEST
Nautical Twilight 3:31 AM CEST 11:45 PM CEST
Astronomical Twilight 2:12 AM CEST 1:07 AM CEST
Moon 5:21 PM CEST (7/18) 1:19 AM CEST (7/18)
Length of Visible Light 17h 53m
Length of Day
16h 19m
Waxing Gibbous, 75% of the Moon is Illuminated
Jul 18
Waxing Gibbous
Jul 22
Full
Jul 29
Last Quarter
Aug 6
New
Aug 14
First Quarter

Hourly Weather History & Observations

Time (CEST) Temp. Dew Point Humidity Pressure Visibility Wind Dir Wind Speed Gust Speed Precip Events Conditions
12:25 AM 62.6 °F 60.8 °F 94% 30.27 in 3.7 mi NNE 5.8 mph - N/A   Unknown
12:55 AM 60.8 °F 60.8 °F 100% 30.27 in 3.7 mi NE 2.3 mph - N/A   Unknown
1:25 AM 60.8 °F 60.8 °F 100% 30.27 in 5.0 mi NE 3.5 mph - N/A   Unknown
1:55 AM 59.0 °F 59.0 °F 100% 30.27 in 4.3 mi NE 3.5 mph - N/A   Unknown
2:00 AM 59 °F 59 °F 100% 30.29 in 4 mi NE 4.5 mph - -   Mist
2:25 AM 59.0 °F 59.0 °F 100% 30.27 in 3.7 mi NE 3.5 mph - N/A   Unknown
2:55 AM 59.0 °F 59.0 °F 100% 30.27 in 3.7 mi NE 3.5 mph - N/A   Unknown
3:25 AM 59.0 °F 59.0 °F 100% 30.27 in 2.8 mi ENE 2.3 mph - N/A   Mist
3:55 AM 59.0 °F 57.2 °F 94% 30.27 in 3.1 mi ENE 2.3 mph - N/A   Mist
4:25 AM 57.2 °F 57.2 °F 100% 30.27 in - NE 3.5 mph - N/A   Mist
4:55 AM 55.4 °F 55.4 °F 100% 30.27 in 1.6 mi NE 1.2 mph - N/A   Mist
5:00 AM 56 °F 56 °F 100% 30.29 in 1 mi NE 2.2 mph - - Fog Fog
5:25 AM 55.4 °F 53.6 °F 94% 30.27 in 2.2 mi North 3.5 mph - N/A   Mist
5:55 AM 55.4 °F 55.4 °F 100% 30.27 in 1.1 mi NNW 1.2 mph - N/A   Mist
6:25 AM 53.6 °F 53.6 °F 100% 30.27 in 5.0 mi NW 1.2 mph - N/A   Partly Cloudy
6:55 AM 55.4 °F 55.4 °F 100% 30.30 in 3.7 mi Variable 1.2 mph - N/A   Unknown
7:25 AM 59.0 °F 59.0 °F 100% 30.30 in 3.1 mi Calm Calm - N/A   Mist
7:55 AM 64.4 °F 60.8 °F 88% 30.30 in 5.6 mi Variable 1.2 mph - N/A   Unknown
8:00 AM 64 °F 61 °F 85% 30.31 in 6 mi NE 4.5 mph - -   Mist
8:25 AM 64.4 °F 60.8 °F 88% 30.30 in 6.2 mi NE 4.6 mph - N/A   Unknown
8:55 AM 66.2 °F 60.8 °F 83% 30.30 in 6.2 mi NE 5.8 mph - N/A   Unknown
9:25 AM 68.0 °F 59.0 °F 73% 30.30 in 6.2 mi NE 5.8 mph - N/A   Unknown
9:55 AM 69.8 °F 59.0 °F 68% 30.30 in 6.2 mi NE 5.8 mph - N/A   Unknown
10:25 AM 69.8 °F 60.8 °F 73% 30.30 in 6.2 mi Variable 3.5 mph - N/A   Unknown
10:55 AM 71.6 °F 60.8 °F 69% 30.30 in 6.2 mi ENE 3.5 mph - N/A   Unknown
11:00 AM 72 °F 60 °F 57% 30.31 in 17 mi NE 4.5 mph - -  
11:25 AM 71.6 °F 60.8 °F 69% 30.30 in 6.2 mi NNE 4.6 mph - N/A   Unknown
11:55 AM 73.4 °F 60.8 °F 65% 30.30 in 6.2 mi NNE 5.8 mph - N/A   Partly Cloudy
12:25 PM 75.2 °F 60.8 °F 61% 30.30 in 6.2 mi NE 5.8 mph - N/A   Mostly Cloudy
12:55 PM 73.4 °F 62.6 °F 69% 30.30 in 6.2 mi North 9.2 mph - N/A   Mostly Cloudy
1:25 PM 73.4 °F 60.8 °F 65% 30.30 in 6.2 mi NNE 9.2 mph - N/A   Mostly Cloudy
1:55 PM 73.4 °F 60.8 °F 65% 30.30 in 6.2 mi NNE 8.1 mph - N/A   Mostly Cloudy
2:00 PM 75 °F 61 °F 52% 30.31 in 14 mi North 6.7 mph - -   Partly Cloudy
2:25 PM 75.2 °F 60.8 °F 61% 30.30 in 6.2 mi North 9.2 mph - N/A   Partly Cloudy
2:55 PM 75.2 °F 60.8 °F 61% 30.30 in 6.2 mi NE 9.2 mph - N/A   Partly Cloudy
3:25 PM 75.2 °F 60.8 °F 61% 30.30 in 6.2 mi NNE 10.4 mph - N/A   Mostly Cloudy
3:55 PM 73.4 °F 60.8 °F 65% 30.30 in 6.2 mi NNE 12.7 mph - N/A   Mostly Cloudy
4:25 PM 73.4 °F 62.6 °F 69% 30.30 in 6.2 mi NNE 11.5 mph - N/A   Partly Cloudy
4:55 PM 73.4 °F 60.8 °F 65% 30.30 in 6.2 mi NNE 10.4 mph - N/A   Unknown
5:00 PM 73 °F 61 °F 57% 30.30 in 11 mi NNE 11.2 mph - -  
5:25 PM 73.4 °F 60.8 °F 65% 30.27 in 6.2 mi NNE 10.4 mph - N/A   Unknown
5:55 PM 73.4 °F 59.0 °F 61% 30.27 in 6.2 mi NNE 10.4 mph - N/A   Unknown
6:25 PM 71.6 °F 59.0 °F 64% 30.27 in 6.2 mi NNE 11.5 mph - N/A   Unknown
6:55 PM 71.6 °F 55.4 °F 57% 30.27 in 6.2 mi NE 11.5 mph - N/A   Unknown
7:25 PM 69.8 °F 53.6 °F 56% 30.27 in 6.2 mi NNE 11.5 mph - N/A   Unknown
7:55 PM 69.8 °F 55.4 °F 60% 30.27 in 6.2 mi NNE 9.2 mph - N/A   Unknown
8:00 PM 69 °F 55 °F 51% 30.29 in 22 mi NNE 8.9 mph - -   Partly Cloudy
8:25 PM 68.0 °F 55.4 °F 64% 30.27 in 6.2 mi NNE 9.2 mph - N/A   Unknown
8:55 PM 68.0 °F 55.4 °F 64% 30.27 in 6.2 mi NNE 8.1 mph - N/A   Unknown
9:25 PM 66.2 °F 55.4 °F 68% 30.27 in 6.2 mi NNE 6.9 mph - N/A   Unknown
9:55 PM 64.4 °F 57.2 °F 77% 30.27 in 6.2 mi North 5.8 mph - N/A   Unknown
10:25 PM 64.4 °F 57.2 °F 77% 30.27 in 6.2 mi North 5.8 mph - N/A   Unknown
10:55 PM 62.6 °F 55.4 °F 77% 30.27 in 6.2 mi NNE 5.8 mph - N/A   Unknown
11:25 PM 62.6 °F 57.2 °F 82% 30.30 in 6.2 mi NNE 5.8 mph - N/A   Unknown
11:55 PM 62.6 °F 57.2 °F 82% 30.30 in 6.2 mi North 5.8 mph - N/A   Unknown